Flag for Germany Weather past 2 weeks in Homburg (Saar), Saarland, Germany

Now
54 °F

Passing clouds.


Feels Like: 54 °F
Forecast: 44 / 73 °F
Wind: 2 mph from Northeast

Location: Saarbruecken / Ensheim


UV Index: 3 (Moderate)

Visibility: N/A


Pressure: 30.09 "Hg

Humidity: 82%

Dew point: 48 °F

Location of Homburg (Saar)Location

Historic Weather in Homburg (Saar)

°F

Homburg (Saar) temperature yesterday

Maximum temperature yesterday: 70 °F (at 1:50 PM)
Minimum temperature yesterday: 45 °F (at 4:20 AM)
Average temperature yesterday: 56 °F

Past Weeks' High & Low Weather Summary

 TemperatureHumidityPressure
High70 °F (Apr 23, 1:50 PM)93% (Apr 9, 6:50 AM)30.39 "Hg (Apr 9, 6:50 AM)
Low34 °F (Apr 9, 6:50 AM)22% (Apr 17, 5:20 PM)29.62 "Hg (Apr 21, 5:50 AM)
Average51 °F63%30.03 "Hg
* Reported Apr 9 12:20 AM — Apr 24 12:20 AM, Homburg (Saar), Weather by CustomWeather, © 2014

Note: Actual official high and low records may vary slightly from our data, if they occured in-between our weather recording intervals... More about our weather records

Advertising

Historic Weather Conditions — Data for Previous 24 hours

 ConditionsComfort  
Time TempWeatherWind HumidityBarometerVisibility
12:20 AM
Apr 24
54 °FPassing clouds.2 mph82%30.09 "HgN/A
11:50 PM
Apr 23
54 °FPassing clouds.1 mph82%30.09 "HgN/A
11:20 PM52 °FPassing clouds.2 mph88%30.09 "HgN/A
10:50 PM52 °FPassing clouds.1 mph88%30.09 "HgN/A
10:20 PM54 °FPassing clouds.2 mph82%30.09 "HgN/A
9:50 PM54 °FPassing clouds.1 mph82%30.09 "HgN/A
9:20 PM54 °FPartly sunny.2 mph82%30.09 "HgN/A
8:50 PM55 °FPartly sunny.3 mph82%30.09 "HgN/A
8:20 PM55 °FPartly sunny.6 mph82%30.09 "HgN/A
7:50 PM55 °FPartly sunny.3 mph82%30.09 "HgN/A
7:20 PM55 °FPartly sunny.10 mph77%30.07 "HgN/A
6:50 PM57 °FThundershowers. Partly sunny.12 mph72%30.07 "HgN/A
6:20 PM59 °FThunderstorms. Scattered clouds.16 mph63%30.07 "HgN/A
5:50 PM66 °FScattered showers. Scattered clouds.7 mph52%30.07 "HgN/A
5:20 PM68 °FScattered showers. Scattered clouds.7 mph46%30.07 "HgN/A
4:50 PM68 °FScattered clouds.5 mph43%30.07 "HgN/A
4:20 PM66 °FPartly sunny.5 mph46%30.07 "HgN/A
3:50 PM68 °FBroken clouds.1 mph43%30.07 "HgN/A
3:20 PM68 °FPartly sunny.6 mph38%30.07 "HgN/A
2:50 PM70 °FScattered clouds.6 mph33%30.07 "HgN/A
2:20 PM68 °FScattered clouds.No wind40%30.07 "HgN/A
1:50 PM70 °FPassing clouds.6 mph40%30.09 "HgN/A
1:20 PM68 °FPassing clouds.5 mph46%30.09 "HgN/A
12:50 PM66 °FPassing clouds.3 mph49%30.09 "HgN/A
12:20 PM66 °FPassing clouds.5 mph49%30.09 "HgN/A
11:50 AM64 °FPassing clouds.2 mph52%30.09 "HgN/A
11:20 AM63 °FPassing clouds.2 mph59%30.09 "HgN/A
10:50 AM61 °FPassing clouds.2 mph59%30.09 "HgN/A
10:20 AM59 °FSunny.3 mph68%30.09 "Hg10 mi
9:50 AM57 °FSunny.1 mph72%30.09 "Hg10 mi
9:20 AM54 °FSunny.3 mph77%30.09 "Hg10 mi
8:50 AM54 °FPassing clouds.1 mph77%30.09 "HgN/A
8:20 AM52 °FSunny.2 mph82%30.09 "Hg10 mi
7:50 AM48 °FSunny.2 mph87%30.09 "Hg10 mi
7:20 AM46 °FClear.2 mph87%30.09 "Hg10 mi
6:50 AM45 °FClear.2 mph87%30.07 "Hg10 mi
6:20 AM45 °FClear.2 mph87%30.07 "Hg10 mi
5:50 AM45 °FPassing clouds.6 mph87%30.07 "HgN/A
5:20 AM45 °FClear.3 mph87%30.07 "Hg10 mi
4:50 AM45 °FClear.2 mph87%30.07 "Hg10 mi
4:20 AM45 °FClear.3 mph87%30.07 "Hg10 mi
3:50 AM46 °FClear.2 mph82%30.07 "Hg10 mi
3:20 AM46 °FClear.5 mph82%30.04 "Hg10 mi
2:50 AM48 °FClear.6 mph82%30.04 "Hg10 mi
2:20 AM48 °FClear.5 mph82%30.04 "Hg10 mi
1:50 AM48 °FClear.3 mph82%30.04 "Hg10 mi
1:20 AM48 °FClear.3 mph82%30.04 "Hg10 mi
Weather by CustomWeather, © 2014

See weather overview